TimeICT,TemperatureF,Dew PointF,Humidity,Sea Level PressureIn,VisibilityMPH,Wind Direction,Wind SpeedMPH,Gust SpeedMPH,PrecipitationIn,Events,Conditions,WindDirDegrees,DateUTC
12:00 AM,78.8,75.2,89,29.68,5.6,SSW,3.5,-,N/A,,Mostly Cloudy,200,2013-09-20 17:00:00
12:30 AM,78.8,75.2,89,29.68,5.6,SSW,3.5,-,N/A,,Mostly Cloudy,200,2013-09-20 17:30:00
1:00 AM,78.8,75.2,89,29.65,5.6,Variable,1.2,-,N/A,,Mostly Cloudy,0,2013-09-20 18:00:00
7:00 AM,,,,,,Calm,Calm,,,,,,2013-09-21 00:00:00
7:00 AM,80.6,75.2,84,29.68,5.6,SSW,10.4,-,N/A,,Mostly Cloudy,210,2013-09-21 00:00:00
7:30 AM,80.6,75.2,84,29.68,5.6,SW,10.4,-,N/A,,Mostly Cloudy,220,2013-09-21 00:30:00
8:00 AM,80.6,75.2,84,29.68,5.6,SW,8.1,-,N/A,,Mostly Cloudy,220,2013-09-21 01:00:00
8:30 AM,80.6,75.2,84,29.71,5.6,SW,5.8,-,N/A,,Mostly Cloudy,220,2013-09-21 01:30:00
9:00 AM,82.4,75.2,79,29.71,5.6,SW,5.8,-,N/A,,Mostly Cloudy,220,2013-09-21 02:00:00
9:30 AM,82.4,75.2,79,29.71,5.6,SW,8.1,-,N/A,,Mostly Cloudy,220,2013-09-21 02:30:00
10:00 AM,82.4,75.2,79,29.71,5.6,South,8.1,-,N/A,,Mostly Cloudy,190,2013-09-21 03:00:00
10:30 AM,84.2,75.2,74,29.71,5.6,SW,8.1,-,N/A,,Mostly Cloudy,230,2013-09-21 03:30:00
11:00 AM,84.2,75.2,74,29.71,5.6,SSW,8.1,-,N/A,,Mostly Cloudy,210,2013-09-21 04:00:00
11:30 AM,84.2,75.2,74,29.68,5.6,SW,10.4,-,N/A,,Mostly Cloudy,230,2013-09-21 04:30:00
12:00 PM,86.0,75.2,70,29.68,6.2,SW,9.2,-,N/A,,Mostly Cloudy,230,2013-09-21 05:00:00
12:30 PM,86.0,75.2,70,29.68,6.2,WSW,10.4,-,N/A,,Mostly Cloudy,240,2013-09-21 05:30:00
1:00 PM,84.2,75.2,74,29.65,6.2,SSW,10.4,-,N/A,,Mostly Cloudy,200,2013-09-21 06:00:00
1:30 PM,82.4,75.2,79,29.65,5.6,West,10.4,-,N/A,,Overcast,260,2013-09-21 06:30:00
2:00 PM,80.6,77.0,89,29.62,5.6,WSW,6.9,-,N/A,,Mostly Cloudy,240,2013-09-21 07:00:00
2:30 PM,82.4,75.2,79,29.62,5.6,WSW,6.9,-,N/A,,Mostly Cloudy,240,2013-09-21 07:30:00
3:00 PM,84.2,75.2,74,29.62,5.6,SW,10.4,-,N/A,,Mostly Cloudy,220,2013-09-21 08:00:00
3:30 PM,84.2,77.0,79,29.59,5.6,SW,11.5,-,N/A,,Scattered Clouds,230,2013-09-21 08:30:00
4:00 PM,86.0,75.2,70,29.59,5.6,SW,11.5,-,N/A,,Scattered Clouds,220,2013-09-21 09:00:00
4:30 PM,84.2,75.2,74,29.59,6.2,SW,13.8,-,N/A,,Scattered Clouds,220,2013-09-21 09:30:00
5:00 PM,84.2,75.2,74,29.59,6.2,SW,13.8,-,N/A,,Scattered Clouds,230,2013-09-21 10:00:00
5:30 PM,84.2,75.2,74,29.59,6.2,SW,11.5,-,N/A,,Scattered Clouds,230,2013-09-21 10:30:00
6:00 PM,82.4,75.2,79,29.59,6.2,SW,5.8,-,N/A,,Scattered Clouds,230,2013-09-21 11:00:00
6:30 PM,82.4,75.2,79,29.62,5.6,SW,6.9,-,N/A,,Mostly Cloudy,230,2013-09-21 11:30:00
7:00 PM,82.4,75.2,79,29.62,5.6,SW,6.9,-,N/A,,Mostly Cloudy,230,2013-09-21 12:00:00
7:30 PM,82.4,75.2,79,29.62,5.6,SW,8.1,-,N/A,,Mostly Cloudy,230,2013-09-21 12:30:00
8:00 PM,82.4,75.2,79,29.65,5.6,SW,8.1,-,N/A,,Mostly Cloudy,220,2013-09-21 13:00:00
8:30 PM,82.4,73.4,74,29.65,5.6,SW,9.2,-,N/A,,Mostly Cloudy,230,2013-09-21 13:30:00
9:00 PM,82.4,73.4,74,29.65,5.6,SW,9.2,-,N/A,,Mostly Cloudy,230,2013-09-21 14:00:00
9:30 PM,80.6,73.4,79,29.68,5.6,SW,5.8,-,N/A,,Mostly Cloudy,230,2013-09-21 14:30:00
10:00 PM,80.6,73.4,79,29.68,5.6,WSW,8.1,-,N/A,,Mostly Cloudy,240,2013-09-21 15:00:00
10:30 PM,80.6,73.4,79,29.68,5.6,SW,8.1,-,N/A,,Mostly Cloudy,230,2013-09-21 15:30:00
11:00 PM,80.6,73.4,79,29.65,5.6,SW,4.6,-,N/A,,Mostly Cloudy,230,2013-09-21 16:00:00
11:30 PM,80.6,73.4,79,29.68,5.6,SW,5.8,-,N/A,,Mostly Cloudy,220,2013-09-21 16:30:00